Location: *
(42.0175°N, 9.4056°E)
Time: 15:45:16
(UTC+00:00)

USA 234 - Pass Details

Date: 25 August 2019
Orbit: 1103 x 1105 km, 123.0° (Epoch: 17 October)

Event Time Altitude Azimuth Distance (km) Brightness Sun altitude
Exits shadow 20:06:50 33° 145° (SE) 1,760 3.8 -20.6°
Maximum altitude 20:10:02 74° 224° (SW) 1,142 3.3 -21.1°
Drops below altitude 10° 20:16:35 10° 309° (NW) 2,966 6.7 -22.0°
Sets 20:19:05 0° 312° (NW) 3,926 7.7 -22.4°
